This demonstration page uses our WeatherBlox Daily Observations layout. Learn more.

Hourly Observations for October 28, 2020

Temp ( °F °C ) Dew Point ( °F °C ) Humidity (%) Winds ( mph kmh ) Pressure ( in mb ) Visibility ( mi km ) Precip ( " mm )
12:15 am 00:15 Clear 26 -3.3 19 -7.5 73 73 SW 5 7 30.23 1024 10 16.0934 0 0
12:35 am 00:35 Clear 26 -3.6 18 -7.6 74 74 W 6 9 30.23 1024 10 16.0934 0 0
12:55 am 00:55 Clear 26 -3.5 18 -7.6 74 74 WSW 7 11 30.22 1023 10 16.0934 0 0
1:15 am 01:15 Clear 26 -3.3 19 -7.3 74 74 WSW 7 11 30.2 1023 10 16.0934 0 0
1:35 am 01:35 Clear 26 -3.3 19 -7.3 74 74 W 7 11 30.19 1022 10 16.0934 0 0
1:55 am 01:55 Clear 27 -3 19 -7.1 74 74 SW 5 7 30.18 1022 10 16.0934 0 0
2:15 am 02:15 Clear 27 -2.9 20 -6.9 74 74 WSW 3 6 30.19 1022 10 16.0934 0 0
2:35 am 02:35 Clear 27 -2.6 20 -6.8 73 73 W 8 13 30.18 1022 10 16.0934 0 0
2:55 am 02:55 Clear 26 -3.2 19 -7.1 75 75 W 7 11 30.18 1022 10 16.0934 0 0
3:15 am 03:15 Clear 25 -3.7 19 -7.1 78 78 SW 6 9 30.18 1022 10 16.0934 0 0
3:35 am 03:35 Clear 24 -4.7 18 -7.7 80 80 SW 6 9 30.17 1022 10 16.0934 0 0
3:55 am 03:55 Clear 24 -4.5 18 -7.6 79 79 SW 6 9 30.16 1021 10 16.0934 0 0
4:15 am 04:15 Clear 24 -4.7 18 -7.6 80 80 Calm 30.16 1021 10 16.0934 0 0
4:35 am 04:35 Clear 25 -4 19 -7.2 79 79 WSW 5 7 30.15 1021 10 16.0934 0 0
4:55 am 04:55 Clear 24 -4.6 18 -7.6 80 80 W 5 7 30.14 1021 10 16.0934 0 0
5:15 am 05:15 Clear 24 -4.5 19 -7.3 81 81 WSW 7 11 30.16 1021 10 16.0934 0 0
5:35 am 05:35 Clear 24 -4.4 19 -7.5 79 79 WSW 8 13 30.15 1021 10 16.0934 0 0
5:55 am 05:55 Clear 24 -4.3 19 -7.4 79 79 W 5 7 30.16 1021 10 16.0934 0 0
6:15 am 06:15 Clear 24 -4.5 18 -7.7 79 79 W 6 9 30.16 1021 10 16.0934 0 0
6:35 am 06:35 Clear 23 -5 18 -7.9 80 80 SW 5 7 30.17 1022 10 16.0934 0 0
6:55 am 06:55 Clear 23 -4.8 18 -8 79 79 W 5 7 30.18 1022 10 16.0934 0 0
7:15 am 07:15 Clear 24 -4.6 18 -7.8 79 79 W 7 11 30.18 1022 10 16.0934 0 0
7:35 am 07:35 Clear 24 -4.7 18 -7.8 79 79 W 7 11 30.18 1022 10 16.0934 0 0
7:55 am 07:55 Clear 23 -5.2 18 -8 81 81 W 9 15 30.17 1022 10 16.0934 0 0
8:15 am 08:15 Sunny 22 -5.4 17 -8.2 81 81 WSW 5 7 30.17 1022 10 16.0934 0 0
8:35 am 08:35 Sunny 24 -4.6 18 -7.8 79 79 W 5 7 30.16 1021 10 16.0934 0 0
8:55 am 08:55 Sunny 25 -3.8 19 -7.2 78 78 W 3 6 30.14 1021 10 16.0934 0 0
9:15 am 09:15 Sunny 25 -3.8 19 -7.4 76 76 WNW 7 11 30.14 1021 10 16.0934 0 0
9:35 am 09:35 Sunny 28 -2.2 21 -6 75 75 NW 12 19 30.13 1020 10 16.0934 0 0
9:55 am 09:55 Sunny 30 -0.9 23 -5.2 73 73 NW 10 17 30.12 1020 10 16.0934 0 0
10:15 am 10:15 Sunny 32 0 24 -4.6 71 71 NW 10 17 30.11 1020 10 16.0934 0 0
10:35 am 10:35 Sunny 33 0.7 25 -3.9 72 72 NW 8 13 30.1 1019 10 16.0934 0 0
10:55 am 10:55 Sunny 34 1.3 26 -3.4 71 71 NW 7 11 30.08 1019 10 16.0934 0 0
11:15 am 11:15 Sunny 37 2.5 28 -2.4 70 70 WNW 7 11 30.06 1018 10 16.0934 0 0
11:35 am 11:35 Sunny 38 3.5 28 -2.1 67 67 NW 8 13 30.05 1018 10 16.0934 0 0
11:55 am 11:55 Sunny 39 4.1 29 -1.5 67 67 NW 6 9 30.04 1017 10 16.0934 0 0
12:15 pm 12:15 Sunny 42 5.3 31 -0.7 66 66 Calm 30.02 1016 10 16.0934 0 0
12:35 pm 12:35 Sunny 43 6.1 31 -0.4 63 63 Calm 30.02 1017 10 16.0934 0 0
12:55 pm 12:55 Sunny 45 7.3 32 0.2 61 61 NW 3 6 30.02 1016 10 16.0934 0 0
1:15 pm 13:15 Sunny 48 8.7 33 0.7 58 58 NNW 6 9 30 1016 10 16.0934 0 0
1:35 pm 13:35 Sunny 49 9.7 33 0.5 53 53 N 3 6 30 1016 10 16.0934 0 0
1:55 pm 13:55 Sunny 51 10.5 33 0.7 51 51 N 5 7 29.98 1015 10 16.0934 0 0
2:15 pm 14:15 Sunny 52 11.3 35 1.4 51 51 Calm 29.96 1015 10 16.0934 0 0
2:35 pm 14:35 Sunny 54 12.2 34 1.2 47 47 Calm 29.94 1014 10 16.0934 0 0
2:55 pm 14:55 Sunny 55 12.5 36 2.1 49 49 NE 3 6 29.92 1013 10 16.0934 0 0
3:15 pm 15:15 Sunny 56 13.3 35 1.9 46 46 NNE 7 11 29.9 1013 10 16.0934 0 0
3:35 pm 15:35 Sunny 57 14.1 32 0 38 38 ENE 3 6 29.9 1012 10 16.0934 0 0
3:55 pm 15:55 Sunny 59 14.9 29 -1.5 33 33 ENE 6 9 29.89 1012 10 16.0934 0 0
4:15 pm 16:15 Sunny 59 14.8 29 -1.5 33 33 ENE 5 7 29.89 1012 10 16.0934 0 0
4:35 pm 16:35 Sunny 56 13.3 38 3.4 51 51 SE 5 7 29.9 1013 10 16.0934 0 0
4:55 pm 16:55 Sunny 54 12 40 4.7 61 61 ESE 3 6 29.91 1013 10 16.0934 0 0
5:15 pm 17:15 Sunny 55 12.6 38 3.2 53 53 ENE 5 7 29.9 1013 10 16.0934 0 0
5:35 pm 17:35 Sunny 53 11.9 39 4 59 59 ENE 3 6 29.92 1013 10 16.0934 0 0
5:55 pm 17:55 Sunny 52 10.9 39 3.9 62 62 NNE 5 7 29.92 1013 10 16.0934 0 0
6:15 pm 18:15 Sunny 51 10.6 38 3.5 62 62 N 7 11 29.94 1014 10 16.0934 0 0
6:35 pm 18:35 Sunny 49 9.7 37 2.7 62 62 N 9 15 29.95 1014 10 16.0934 0 0
6:55 pm 18:55 Clear 49 9.4 36 2.2 61 61 N 13 20 29.97 1015 10 16.0934 0 0
7:15 pm 19:15 Clear 47 8.4 36 2 64 64 N 8 13 30.01 1016 10 16.0934 0 0
7:35 pm 19:35 Clear 48 9 36 2 62 62 N 13 20 30 1016 10 16.0934 0 0
7:55 pm 19:55 Clear 47 8.6 36 2.1 64 64 NNE 12 19 30.03 1017 10 16.0934 0 0
8:15 pm 20:15 Clear 46 8 36 2.1 67 67 N 12 19 30.04 1017 10 16.0934 0 0
8:35 pm 20:35 Clear 46 7.7 36 2.2 68 68 N 8 13 30.05 1018 10 16.0934 0 0
8:55 pm 20:55 Clear 44 6.8 36 2 72 72 N 8 13 30.08 1019 10 16.0934 0 0
9:15 pm 21:15 Clear 46 7.6 36 2.2 69 69 N 16 26 30.08 1019 10 16.0934 0 0
9:35 pm 21:35 Clear 46 7.6 36 2.2 69 69 NNE 20 31 30.09 1019 10 16.0934 0 0
9:55 pm 21:55 Clear 45 7 36 2.1 71 71 N 17 28 30.07 1018 10 16.0934 0 0
10:15 pm 22:15 Clear 44 6.7 36 2.1 73 73 N 21 33 30.05 1018 10 16.0934 0 0
10:35 pm 22:35 Clear 44 6.4 36 2 74 74 N 18 30 30.08 1018 10 16.0934 0 0
10:55 pm 22:55 Clear 43 6.1 36 2 75 75 N 20 31 30.11 1020 10 16.0934 0 0
11:15 pm 23:15 Clear 43 6 35 1.9 75 75 N 16 26 30.13 1020 10 16.0934 0 0
11:35 pm 23:35 Clear 42 5.5 35 1.8 77 77 N 15 24 30.14 1021 10 16.0934 0 0
11:55 pm 23:55 Clear 41 5.2 35 1.8 79 79 N 15 24 30.14 1021 10 16.0934 0 0

Powered by AerisWeather